GSAT-7A (43864 NORAD) Tracking and Keplerian Element Data

This shows tracking and keplerian element data for the satellite.

Feedback or suggestion? Click here.




ElementValue
Catalog43864
NameGSAT-7A
Epoch Orbit158
Epoch Day143.12221177
Epoch Year2019
RAAN268.9479
Inclination0.0438
Eccentricity0.0003065
Argument of Perigee143.875
Mean Anonmoly294.3752
Mean Motion1.0026933
Decay Rate2E-07
L11 43864U 18105A 19143.12221177 .00000020 00000-0 00000+0 0 9992
L22 43864 0.0438 268.9479 0003065 143.8750 294.3752 1.00269330 1589

Live tracking and technical data element details for GSAT-7A (NORAD 43864). GSAT-7A can be tracked NOW for your location showing map with azimuth and elevation plus other details from your city location.

Track the satellite on the map from your city or location and see movement details for azimuth, elevation, latitude, longitude, range, height, and movement on the map or in text.







IsCatalogInMostPopularTable: catalog: 43864, numindb: 82
Update: records affected: 1



GetName: 43864 GSAT-7A

Hit Count: updated at: Thu, 23 May 2019 15:11:27 GMT